South Lake Tahoe, CA

5:39 AM PST on December 11, 2017 (GMT -0800)
Lake Tahoe

Weather History for KTVL - May, 2013

Change the Weather History Date:

Sunday, May 26, 2013

  Actual Average Record
Temperature  
Mean Temperature 48 °F 50 °F  
Max Temperature 62 °F 66 °F 79 °F (1992)
Min Temperature 33 °F 34 °F 21 °F (1980)
Degree Days  
Heating Degree Days 17 15  
Month to date heating degree days 406 460  
Since 1 July heating degree days 6790 7350  
Cooling Degree Days 0 0  
Month to date cooling degree days 0 0  
Year to date cooling degree days 0 0  
Moisture  
Dew Point 28 °F    
Average Humidity 51    
Maximum Humidity 75    
Minimum Humidity 27    
Precipitation  
Precipitation 0.00 in - 0.28 in (1981)
Month to date precipitation 1.64  
Year to date precipitation 4.58  
Sea Level Pressure  
Sea Level Pressure 30.00 in    
Wind  
Wind Speed 6 mph (SSW)    
Max Wind Speed 22 mph    
Max Gust Speed 30 mph    
Visibility 10 miles    
Events      
T = Trace of Precipitation, MM = Missing Value Source: NWS Daily Summary

Daily Weather History Graph

Daily Weather History Graph

Search for Another Location

Airport or City:

Trip Planner

Search our weather history database for the weather conditions in past years. The results will help you decide how hot, cold, wet, or windy it might be!

Date:

Astronomy

May. 26, 2013 Rise Set
Actual Time 5:39 AM PDT 8:15 PM PDT
Civil Twilight 5:08 AM PDT 8:46 PM PDT
Nautical Twilight 4:29 AM PDT 9:25 PM PDT
Astronomical Twilight 3:46 AM PDT 10:08 PM PDT
Moon 10:07 PM PDT (5/26) 7:13 AM PDT (5/26)
Length of Visible Light 15h 38m
Length of Day
14h 36m
Waning Gibbous, 96% of the Moon is Illuminated
May 26
Waning Gibbous
May 31
Last Quarter
Jun 8
New
Jun 16
First Quarter
Jun 23
Full

Hourly Weather History & Observations

Time (PDT) Temp. Windchill Dew Point Humidity Pressure Visibility Wind Dir Wind Speed Gust Speed Precip Events Conditions
12:53 AM 45.0 °F 41.8 °F 28.0 °F 52% 29.96 in 10.0 mi SSW 5.8 mph - N/A   Clear
1:53 AM 42.1 °F - 27.0 °F 55% 29.96 in 10.0 mi Calm Calm - N/A   Clear
2:53 AM 37.9 °F - 27.0 °F 65% 29.97 in 10.0 mi Calm Calm - N/A   Clear
3:53 AM 36.0 °F - 26.1 °F 67% 29.97 in 10.0 mi Calm Calm - N/A   Clear
4:53 AM 35.1 °F - 26.1 °F 70% 29.99 in 10.0 mi Calm Calm - N/A   Clear
5:53 AM 34.0 °F - 26.1 °F 73% 30.00 in 10.0 mi Calm Calm - N/A   Clear
6:53 AM 37.9 °F - 27.0 °F 65% 30.00 in 10.0 mi Calm Calm - N/A   Clear
7:53 AM 48.9 °F - 27.0 °F 43% 29.98 in 10.0 mi SSE 5.8 mph - N/A   Clear
8:53 AM 52.0 °F - 25.0 °F 35% 29.98 in 10.0 mi Variable 6.9 mph - N/A   Clear
9:53 AM 55.0 °F - 24.1 °F 30% 29.98 in 10.0 mi South 13.8 mph 24.2 mph N/A   Clear
10:53 AM 57.9 °F - 26.1 °F 30% 29.97 in 10.0 mi South 16.1 mph 27.6 mph N/A   Clear
11:53 AM 59.0 °F - 27.0 °F 29% 29.98 in 10.0 mi South 13.8 mph 28.8 mph N/A   Clear
12:53 PM 60.1 °F - 26.1 °F 27% 29.98 in 10.0 mi SSW 16.1 mph 20.7 mph N/A   Clear
1:53 PM 60.1 °F - 26.1 °F 27% 29.99 in 10.0 mi SSW 5.8 mph 26.5 mph N/A   Partly Cloudy
2:53 PM 60.1 °F - 28.0 °F 30% 30.01 in 10.0 mi SW 13.8 mph 28.8 mph N/A   Mostly Cloudy
3:53 PM 57.9 °F - 30.0 °F 35% 30.02 in 10.0 mi SSW 12.7 mph 26.5 mph N/A   Scattered Clouds
4:53 PM 55.9 °F - 30.0 °F 37% 30.03 in 10.0 mi SSW 10.4 mph 24.2 mph N/A   Clear
5:53 PM 55.9 °F - 30.0 °F 37% 30.04 in 10.0 mi SSW 12.7 mph 20.7 mph N/A   Clear
6:53 PM 53.1 °F - 32.0 °F 45% 30.04 in 10.0 mi SSW 11.5 mph 19.6 mph N/A   Clear
7:53 PM 51.1 °F - 33.1 °F 50% 30.03 in 10.0 mi Variable 5.8 mph - N/A   Clear
8:53 PM 50.0 °F - 35.1 °F 57% 30.05 in 10.0 mi SSW 11.5 mph 19.6 mph N/A   Clear
9:53 PM 46.9 °F - 35.1 °F 63% 30.05 in 10.0 mi SSE 6.9 mph - N/A   Clear
10:53 PM 45.0 °F 43.5 °F 33.1 °F 63% 30.05 in 10.0 mi Variable 3.5 mph - N/A   Clear
11:53 PM 42.1 °F - 28.9 °F 60% 30.06 in 10.0 mi Calm Calm - N/A   Clear